This is the latest recevied weather packets stored in our database for station/object 9W3FAB-1. If no packets are shown the sender has not sent any weather packets the latest 10 day(s).
| Time | Temp. | Humidity | Pressure | Rain* | Wind** | Luminosity | Snow |
|---|---|---|---|---|---|---|---|
| 1777493841 | 27.78° C | 100% | 1007 hPa | - | - | - | - |
| 1777492940 | 27.78° C | 100% | 1007.1 hPa | - | - | - | - |
| 1777492039 | 28.33° C | 100% | 1007.2 hPa | - | - | - | - |
| 1777491138 | 28.33° C | 100% | 1007.3 hPa | - | - | - | - |
| 1777490237 | 27.78° C | 100% | 1007.5 hPa | - | - | - | - |
| 1777489337 | 27.78° C | 100% | 1007.6 hPa | - | - | - | - |
| 1777488436 | 28.33° C | 100% | 1007.5 hPa | - | - | - | - |
| 1777487535 | 28.33° C | 100% | 1007.6 hPa | - | - | - | - |
| 1777486634 | 28.33° C | 100% | 1007.7 hPa | - | - | - | - |
| 1777485733 | 28.33° C | 100% | 1008 hPa | - | - | - | - |
| 1777484832 | 28.33° C | 100% | 1008.4 hPa | - | - | - | - |
| 1777483932 | 28.33° C | 100% | 1008.2 hPa | - | - | - | - |
| 1777483031 | 28.33° C | 100% | 1008.1 hPa | - | - | - | - |
| 1777482129 | 28.33° C | 100% | 1008.3 hPa | - | - | - | - |
| 1777481228 | 28.33° C | 100% | 1008.2 hPa | - | - | - | - |
| 1777480328 | 28.33° C | 100% | 1008.2 hPa | - | - | - | - |
| 1777479427 | 28.89° C | 100% | 1008.2 hPa | - | - | - | - |
| 1777478526 | 28.89° C | 100% | 1008.4 hPa | - | - | - | - |
| 1777477625 | 28.89° C | 100% | 1008.6 hPa | - | - | - | - |
| 1777476724 | 28.89° C | 100% | 1008.5 hPa | - | - | - | - |
| 1777475823 | 28.89° C | 100% | 1008.5 hPa | - | - | - | - |
| 1777474922 | 29.44° C | 100% | 1008.5 hPa | - | - | - | - |
| 1777474022 | 28.89° C | 100% | 1008.3 hPa | - | - | - | - |
| 1777473121 | 29.44° C | 100% | 1008.1 hPa | - | - | - | - |
| 1777472220 | 29.44° C | 100% | 1008.4 hPa | - | - | - | - |
* Rain since midnight (hover to see other rain measurements)
** Current wind speed in m/s (hover to see current wind gust speed)